Tracking 31027 objects as of 19-Jul-2025
HD Live streaming from Space Station
objects crossing your sky now

STARLINK-2188

Track STARLINK-2188 now!
10-day predictions
STARLINK-2188 is classified as:


NORAD ID: 48563
Int'l Code: 2021-041L
Perigee: 553.3 km
Apogee: 555.4 km
Inclination: 53.1 °
Period: 95.6 minutes
Semi major axis: 6925 km
RCS: Unknown
Launch date: May 15, 2021
Source: United States (US)
Launch site: AIR FORCE EASTERN TEST RANGE (AFETR)
Your satellite tracking list
STARLINK-30236
Track 1 satellite(s)




NASA's NSSDC Master Catalog

Two Line Element Set (TLE):
1 48563U 21041L   25199.42986820 -.00000210  00000-0  48086-5 0  9994
2 48563  53.0558 103.2568 0001462  93.8069 266.3087 15.06400696229896
Source of the keplerian elements: AFSPC